Location: Prairie State College
(41.5244°N, 87.6382°W)
Time: 19:51:00
(UTC-05:00)

Cosmos 1140 Rocket - Visible Passes

Search period start: 22 October 2017 00:00
Search period end: 01 November 2017 00:00
Orbit: 744 x 768 km, 74.1° (Epoch: 22 October)

Date Brightness Start Highest point End Pass type
(mag) Time Alt. Az. Time Alt. Az. Time Alt. Az.
23 Oct 6.4 06:37:24 10° NE 06:38:14 10° NE 06:39:04 10° ENE visible
26 Oct 6.2 06:15:59 10° NNE 06:18:32 13° NE 06:21:04 10° E visible
28 Oct 5.4 06:35:11 10° N 06:39:42 29° ENE 06:44:11 10° ESE visible
29 Oct 6.1 05:55:23 10° NNE 05:58:48 17° NE 06:02:11 10° E visible
31 Oct 4.9 06:15:01 10° N 06:19:51 38° ENE 06:24:38 10° SE visible
